Home   Weather   Ilanz   Past weeks

Flag for Switzerland Past Weather in Ilanz, Graubünden, Switzerland — Yesterday and Last 2 Weeks

Now
64 °F

Mild.


Feels Like: 64 °F
Forecast: 55 / 79 °F
Wind: 3 mph from Southwest

Location: Chur

Current Time: Aug 31, 2016 at 12:57:42 AM

Latest Report: Aug 31, 2016 at 12:00 AM


Visibility: N/A

Pressure: 30.14 "Hg (27.75 "Hg at 703m altitude)

Humidity: 80%

Dew Point: 58 °F

Location of IlanzLocation

Past Weather in Ilanz — Graph

°F

Ilanz Temperature Yesterday

Maximum temperature yesterday: 78 °F (at 4:00 PM)
Minimum temperature yesterday: 62 °F (at 6:00 AM)
Average temperature yesterday: 68 °F

High & Low Weather Summary for the Past Weeks

 TemperatureHumidityPressure
High88 °F (Aug 26, 4:00 PM)98% (Aug 17, 5:00 AM)30.43 "Hg (Aug 17, 5:00 AM)
Low52 °F (Aug 22, 8:00 AM)36% (Aug 28, 5:00 PM)29.76 "Hg (Aug 18, 3:00 PM)
Average68 °F73%30.07 "Hg
* Reported Aug 15 11:00 PM — Aug 30 11:00 PM, Ilanz, Weather by CustomWeather, © 2016

Note: Actual official high and low records may vary slightly from our data, if they occured in-between our weather recording intervals... More about our weather records

Advertising

Ilanz Weather History for the Previous 24 Hours

Scroll right to see more
 ConditionsComfort  
Time TempWeatherWind HumidityBarometerVisibility
11:00 PM
Tue, Aug 30
65 °FMild.3 mph81%30.15 "Hg9 mi
10:00 PM66 °FMild.1 mph83%30.14 "HgN/A
9:00 PM67 °FMild.No wind82%30.13 "HgN/A
8:00 PM70 °FScattered clouds.3 mph71%30.09 "Hg12 mi
7:00 PM72 °FMild.3 mph69%30.07 "HgN/A
6:00 PM74 °FMild.7 mph61%30.06 "HgN/A
5:00 PM76 °FOvercast.9 mph57%30.05 "Hg11 mi
4:00 PM78 °FWarm.10 mph54%30.05 "HgN/A
3:00 PM77 °FWarm.10 mph55%30.06 "HgN/A
2:00 PM77 °FWarm.7 mph56%30.06 "HgN/A
1:00 PM75 °FMild.2 mph50%30.09 "HgN/A
12:00 PM72 °FMild.3 mph62%30.12 "HgN/A
11:00 AM68 °FPartly sunny.3 mph73%30.16 "Hg9 mi
10:00 AM66 °FMild.3 mph79%30.16 "HgN/A
9:00 AM64 °FMild.No wind86%30.17 "HgN/A
8:00 AM63 °FOvercast.No wind88%30.17 "Hg9 mi
7:00 AM63 °FMild.1 mph90%30.16 "HgN/A
6:00 AM62 °FCool.1 mph91%30.15 "HgN/A
5:00 AM62 °FCool.2 mph89%30.15 "HgN/A
4:00 AM63 °FMild.5 mph85%30.15 "HgN/A
3:00 AM64 °FMild.2 mph89%30.17 "HgN/A
2:00 AM64 °FOvercast.3 mph84%30.16 "Hg9 mi
1:00 AM63 °FMild.1 mph88%30.18 "HgN/A
12:00 AM64 °FMild.1 mph88%30.17 "HgN/A
Weather by CustomWeather, © 2016

See weather overviewHow to use our weather pages